Regional Weather Roundup
Issued by NWS

Home | Current Version | Previous Version | Graphics & Text | Print | Product List | Glossary On
Versions: 1 2 3 4 5 6 7 8 9 10 11 12 13 14 15 16 17 18 19 20 21 22 23 24 25 26 27 28 29 30 31 32 33 34 35 36 37 38 39 40 41 42 43 44 45 46 47 48 49 50
000
ASUS43 KLOT 050621
RWRIL

ILLINOIS REGIONAL WEATHER ROUNDUP
NATIONAL WEATHER SERVICE CHICAGO/ROMEOVILLE IL
100 AM CDT SAT SEP 05 2015

NOTE: "FAIR" INDICATES FEW OR NO CLOUDS BELOW 12,000 FEET WITH NO
SIGNIFICANT WEATHER AND/OR OBSTRUCTIONS TO VISIBILITY.

* THESE STATIONS ARE NOT UNDER NWS QUALITY CONTROL. THEY ALSO MAY NOT
  REPORT WEATHER SUCH AS PRECIPITATION OR FOG.

ILZ001-002-007-009-015-016-024-050700-
NORTHWEST ILLINOIS

CITY           SKY/WX    TMP DP  RH WIND       PRES   REMARKS
MOLINE         FAIR      74  69  85 CALM      30.01S
6HR MIN TEMP:  73; 6HR MAX TEMP:  87;

STERLING*      CLEAR    N/A N/A N/A E5        30.01S
SAVANNA*       PTCLDY    74  71  89 E3        30.02R
$$

ILZ003-004-008-010-011-017-018-050700-
NORTH CENTRAL ILLINOIS

CITY           SKY/WX    TMP DP  RH WIND       PRES   REMARKS
ROCKFORD       PTCLDY    70  66  87 CALM      30.05F
6HR MIN TEMP:  70; 6HR MAX TEMP:  85;

FREEPORT*      PTCLDY    69  67  94 E5        30.06S FOG
ROCHELLE*      PTCLDY    69  67  93 SE6       30.05S FOG
DE KALB*       CLEAR     69  67  93 SE6       30.06S FOG
PERU*          MOCLDY    74  67  78 CALM      30.05R
$$

ILZ005-006-012>014-019>023-050700-
NORTHEAST ILLINOIS

CITY           SKY/WX    TMP DP  RH WIND       PRES   REMARKS
CHICAGO-OHARE  PTCLDY    72  67  84 E3        30.04F
6HR MIN TEMP:  70; 6HR MAX TEMP:  73;

CHICAGO-MIDWAY PTCLDY    75  67  76 E5        30.05S
6HR MIN TEMP:  74; 6HR MAX TEMP:  76;

AURORA         CLEAR     71  66  84 SE3       30.05F
6HR MIN TEMP:  70; 6HR MAX TEMP:  82;

LANSING*       CLEAR     69  68  96 CALM      30.05S FOG
JOLIET*        CLEAR     72  69  90 CALM      30.04S
WAUKEGAN       PTCLDY    66  65  96 CALM      30.06S
6HR MIN TEMP:  65; 6HR MAX TEMP:  69;

DUPAGE AIRPORT PTCLDY    70  65  84 NE3       30.05S
6HR MIN TEMP:  70; 6HR MAX TEMP:  79;

KANKAKEE*      CLEAR     68  67  96 CALM      30.05F
WHEELING       NOT AVBL
MORRIS*        CLEAR     72  67  85 CALM      30.04S
ROMEOVILLE*    CLEAR     69  66  91 SE3       30.05S
NORTHERLY ISL    N/A     70  67  90 NE2         N/A
$$

LMZ740>746-050700-
SOUTHERN LAKE MICHIGAN

STATION/POSITION SKY/WX   TEMP    WIND        PRES    VSBY  WAVE
                          AIR SEA DIR/SP/G                  HT/PER
                          (F)     (DEG/KT/KT) (MB)    (MI)  (FT/S)
SOUTHERN BUOY              69 71  140/  2/  4 1017.7R         1
WILMETTE HARBOR            71 71  270/  4/  4   N/A           1/ 3
HARRISON CRIB              71      90/  6/  6   N/A
BURNHAM HARBOR             70      40/  2/  3   N/A
CALUMET HARBOR             71      10/  3/  4   N/A
BURNS HARBOR               72     180/  1/  2 1018.3
MICHIGAN CITY              71      80/  2/  3   N/A
MICHIGAN CITY 6N           73 74  130/  4/  8   N/A           1
ST. JOSEPH                 72 75  180/  4/  6   N/A           1
$$

ILZ025>027-034>036-040-047-049-050-058-095>099-050700-
WEST-CENTRAL ILLINOIS

CITY           SKY/WX    TMP DP  RH WIND       PRES   REMARKS
QUINCY         CLEAR     78  69  73 S7        30.03S HX  80
GALESBURG*     CLEAR     74  67  80 S3        30.03S
MACOMB*        CLEAR     74  69  82 S3        30.05R
JACKSONVILLE*  CLEAR     75  70  84 S5        30.03F
PITTSFIELD*    CLEAR     74  70  86 SE3       30.05S
$$

ILZ028>032-037-038-041>044-048-051>054-059>061-050700-
CENTRAL ILLINOIS

CITY           SKY/WX    TMP DP  RH WIND       PRES   REMARKS
PONTIAC        CLEAR     73  68  86 CALM      30.05S
BLOOMINGTON    CLEAR     71  66  84 S8        30.06F
DECATUR        CLEAR     72  61  68 E6        30.05R
PEORIA         CLEAR     78  67  68 S8        30.04S HX  80
6HR MIN TEMP:  78; 6HR MAX TEMP:  90;

LACON*         PTCLDY    75  65  71 S5        30.03R
LINCOLN*       CLEAR     74  66  75 S6        30.04F
SPRINGFIELD    CLEAR     76  67  73 SE5       30.05F
6HR MIN TEMP:  76; 6HR MAX TEMP:  88;

TAYLORVILLE    CLEAR     72  64  78 SE5       30.06S
$$

ILZ033-039-045-046-055>057-062-063-050700-
EAST-CENTRAL ILLINOIS

CITY           SKY/WX    TMP DP  RH WIND       PRES   REMARKS
CHAMPAIGN      CLEAR     67  64  90 N3        30.05S
RANTOUL*       CLEAR     71  66  84 CALM      30.05S
MATTOON        PTCLDY    71  67  87 SW5       30.03F
PARIS*         MOCLDY    70  68  96 SE3       30.07R
$$

ILZ079-100>102-050700-
SOUTHWEST ILLINOIS

CITY           SKY/WX    TMP DP  RH WIND       PRES   REMARKS
ALTON          PTCLDY    70  69  96 CALM      30.05S FOG
BELLEVILLE     FOG       73  73 100 CALM      30.03F VSB 3/4
CAHOKIA*       CLEAR     74  70  87 S3        30.04S
SPARTA*        CLEAR     71  70  96 CALM      30.06S
$$

ILZ064>066-069>071-074>076-080>082-084>086-088>090-092>094-050700-
SOUTH-CENTRAL ILLINOIS

CITY           SKY/WX    TMP DP  RH WIND       PRES   REMARKS
CARBONDALE     FOG       70  69  97 CALM      30.05S VSB 1/2
6HR MIN TEMP:  70; 6HR MAX TEMP:  85;

CAIRO*         FOG       70  70 100 CALM      30.04F VSB 3/4
EFFINGHAM*     CLEAR     69  64  83 CALM      30.06F
MARION         CLEAR     72  70  94 CALM      30.05F FOG
MT. VERNON     CLEAR     70  63  78 CALM      30.06S
CENTRALIA*     CLEAR     71  71  99 CALM      30.05S FOG
SALEM*         CLEAR     74  70  86 CALM      30.07S
METROPOLIS*    CLEAR     69  69 100 CALM      30.05S FOG
$$

ILZ067-068-072-073-078-083-087-091-050700-
SOUTHEAST ILLINOIS

CITY           SKY/WX    TMP DP  RH WIND       PRES   REMARKS
LAWRENCEVILLE  CLOUDY    74  70  87 CALM      30.04F
FLORA*         CLOUDY    72  67  85 CALM      30.05F
FAIRFIELD*     CLEAR     71  69  94 CALM      30.04S
HARRISBURG*    CLEAR     70  69  95 CALM      30.05F FOG
ROBINSON*      CLOUDY    71  66  84 E5        30.06R
CARMI*         CLEAR     67  67  97 CALM      30.05S FOG
$$

ABBREVIATIONS USED IN REMARKS
   TC - TEMPERATURE IN CELSIUS
  WCI - WIND CHILL INDEX
   HX - HEAT INDEX
  VSB - VISIBILITY
$$




USA.gov is the U.S. government's official web portal to all federal, state and local government web resources and services.